Showing default

COSMOS 2080 (GLONASS), 20620

Orbit data source: Space-Track

COSMOS 2080 (GLONASS), 20620 is a payload satellite owned by UNKS (CIS) in MEO that was launched on Sat, 19 May 1990 UTC via a PROTON-K/DM-2 launch vehicle from the Tyuratam Missile And Space Complex (TTMTR). Payload-class satellites include a variety of spacecraft equipped with specific instruments for various scientific and technological missions. These include communications satellites like Starlink; space stations such as the ISS; scientific satellites like the Hubble; Earth observation satellites from companies like Planet Labs, Umbra, and HawkEye 360; GPS; miniature CubeSats for education and research; and military/defense satellites.

Loading next visibility...
Identifier
20620, 1990-045B
Orbit
MEO
Country
Flag of CISCIS
Related business
Manufacturer
Polyot
Mission
Non-operational Defense Navigation
Bus & Motor
URAGAN, Unknown motor
Mass
1,300 kg wet, ~1,200 kg dry
Launch date (UTC)
1990-05-19 (36 years ago)
Launch vehicle
PROTON-K/DM-2
Launch site
Tyuratam Missile And Space Complex (TTMTR)
Object type
Payload
Rocket body
Debris
Shape & HBR
Cyl + 2 Pan, 4.2 m
Radar Cross Section
14.707 m², Large (>1 m²)

Expand to show TLE details & history
Last TLE update: 3 days ago

TLE from 3 days ago
0 COSMOS 2080 (GLONASS)
1 20620U 90045B   26170.24313434 -.00000056  00000-0  00000-0 0  9990
2 20620  64.7049 308.2782 0023975  30.3398 328.3348  2.13102794280644
Epoch: 2026-06-19T05:50Z
TLE epoch observation values (Epoch: 2026-06-19T05:50:06.806Z)
Latitude
-1.32439°
Longitude
-47.36535°
Altitude
19,078.579 km
Speed
3.961 km/s
True Right ascension
20h 30m 33s
True Declination
-1° 19' 20"
Sunlit
Object was in daylight at epoch
Visualization orbit readout
Latitude
Unknown
Longitude
Unknown
Altitude
Unknown
Speed
Unknown
Apparent Right ascension
Unknown
Apparent Declination
Unknown
Sunlit
N/A
Visualization observer readout
Local Sidereal Time
00:31:43
Azimuth
Unknown
Elevation
Unknown
Doppler factor
Unknown
Orbital elements
Apogee altitude
19,190.604 km
Perigee altitude
19,068.295 km
Semi-major axis
25,507.586 km
Eccentricity
0.0024
Inclination
64.7049°
RAAN
308.2782°
Arg. of periapsis
30.3398°
True anomaly
328.19021°
Mean anomaly
328.3348°
Eccentric anomaly
328.26254°
Mean motion
0.53277 °/min
Orbital period
675.71 mins
BSTAR
0
Loading maneuver chart data...
Computing Atmospheric mass density...
Loading historical data...
Loading historical data...
Loading historical data...
Loading historical data...
Loading historical data...
Loading historical data...
Loading historical data...

Documentation

Showing up to 5 results
|